Location: Sternwarte_Laufen
(47.9344°N, 12.9346°E)
Time: 03:51:51
(UTC+02:00)

ISS - Pass Details

Date: 07 July 2025
Orbit: 413 x 417 km, 51.6° (Epoch: 12 July)

Event Time Altitude Azimuth Distance (km) Brightness Sun altitude
Rises 03:38:36 0° 292° (WNW) 2,360 -0.1 -12.3°
Reaches altitude 10° 03:40:42 10° 294° (WNW) 1,496 -1.1 -12.1°
Maximum altitude 03:44:04 76° 21° (NNE) 434 -3.6 -11.8°
Drops below altitude 10° 03:47:25 10° 107° (ESE) 1,493 -0.7 -11.5°
Sets 03:49:30 0° 109° (ESE) 2,354 0.3 -11.3°
